| time (UTC) | temp F | wind direction | speed MPH | gust MPH | rain 1hr in | rain 24hr in | rain mn in | humidity % | barometer mb |
| 20260510030051 | 60 | 261 | 0.0 | 1.0 | 0.00 | 0.00 | 0.00 | 19 | 1001.3 |
| 20260510024555 | 61 | 257 | 0.0 | 1.0 | 0.00 | 0.00 | 0.00 | 25 | 1001.2 |
| 20260510023047 | 61 | 252 | 0.0 | 3.0 | 0.00 | 0.00 | 0.00 | 28 | 1001.0 |
| 20260510021548 | 61 | 263 | 0.0 | 5.0 | 0.00 | 0.00 | 0.00 | 31 | 1000.8 |
| 20260510020049 | 62 | 259 | 0.0 | 4.0 | 0.00 | 0.00 | 0.00 | 34 | 1000.8 |
| 20260510014546 | 62 | 252 | 0.0 | 4.0 | 0.00 | 0.00 | 0.00 | 52 | 1000.7 |
| 20260510013049 | 64 | 252 | 0.0 | 1.0 | 0.00 | 0.00 | 0.00 | 59 | 1000.7 |
| 20260510011553 | 64 | 256 | 0.0 | 5.0 | 0.00 | 0.00 | 0.00 | 61 | 1000.6 |
| 20260510010044 | 65 | 246 | 0.0 | 3.0 | 0.00 | 0.00 | 0.00 | 66 | 1000.5 |
| 20260510004548 | 66 | 173 | 0.0 | 7.0 | 0.00 | 0.00 | 0.00 | 70 | 1000.6 |
| 20260510003101 | 66 | 254 | 0.0 | 8.0 | 0.00 | 0.00 | 0.00 | 70 | 1000.5 |
| 20260510001543 | 67 | 247 | 1.0 | 8.0 | 0.00 | 0.00 | 0.00 | 72 | 1000.5 |
| 20260510000046 | 69 | 193 | 0.0 | 6.0 | 0.00 | 0.00 | 0.00 | 73 | 1000.6 |
| 20260509234558 | 70 | 256 | 1.0 | 8.0 | 0.00 | 0.00 | 0.00 | 72 | 1000.6 |
| 20260509233043 | 70 | 226 | 0.0 | 5.0 | 0.00 | 0.00 | 0.00 | 72 | 1000.7 |
| 20260509231551 | 71 | 234 | 0.0 | 5.0 | 0.00 | 0.00 | 0.00 | 72 | 1000.6 |
| 20260509230038 | 70 | 239 | 0.0 | 6.0 | 0.00 | 0.00 | 0.00 | 72 | 1000.6 |
| 20260509224539 | 70 | 249 | 1.0 | 9.0 | 0.00 | 0.00 | 0.00 | 72 | 1000.7 |
| 20260509223036 | 71 | 202 | 0.0 | 4.0 | 0.00 | 0.00 | 0.00 | 72 | 1000.9 |
| 20260509221534 | 70 | 211 | 0.0 | 7.0 | 0.00 | 0.00 | 0.00 | 72 | 1001.2 |
| 20260509220033 | 71 | 259 | 0.0 | 6.0 | 0.00 | 0.00 | 0.00 | 71 | 1001.5 |
| 20260509214531 | 71 | 252 | 0.0 | 5.0 | 0.00 | 0.00 | 0.00 | 71 | 1001.4 |
| 20260509213029 | 71 | 246 | 0.0 | 4.0 | 0.00 | 0.00 | 0.00 | 71 | 1001.7 |
| 20260509211528 | 71 | 244 | 0.0 | 4.0 | 0.00 | 0.00 | 0.00 | 71 | 1001.7 |
| 20260509210026 | 71 | 252 | 0.0 | 8.0 | 0.00 | 0.00 | 0.00 | 71 | 1001.9 |
| 20260509204524 | 71 | 200 | 0.0 | 8.0 | 0.00 | 0.00 | 0.00 | 71 | 1002.0 |
| 20260509203023 | 72 | 215 | 0.0 | 5.0 | 0.00 | 0.00 | 0.00 | 71 | 1002.0 |
| 20260509201523 | 72 | 211 | 0.0 | 3.0 | 0.00 | 0.00 | 0.00 | 71 | 1002.1 |
| 20260509200023 | 72 | 192 | 0.0 | 1.0 | 0.00 | 0.00 | 0.00 | 70 | 1002.2 |
| 20260509194528 | 72 | 257 | 1.0 | 6.0 | 0.00 | 0.00 | 0.00 | 71 | 1002.2 |
| 20260509193021 | 72 | 197 | 0.0 | 5.0 | 0.00 | 0.00 | 0.00 | 71 | 1002.4 |
| 20260509191520 | 72 | 205 | 0.0 | 3.0 | 0.00 | 0.00 | 0.00 | 71 | 1002.5 |
| 20260509190021 | 71 | 259 | 0.0 | 7.0 | 0.00 | 0.00 | 0.00 | 72 | 1002.7 |
| 20260509184518 | 72 | 252 | 0.0 | 3.0 | 0.00 | 0.00 | 0.00 | 71 | 1002.8 |
| 20260509183023 | 71 | 254 | 1.0 | 5.0 | 0.00 | 0.00 | 0.00 | 72 | 1002.8 |
| 20260509181515 | 71 | 255 | 0.0 | 3.0 | 0.00 | 0.00 | 0.00 | 71 | 1002.9 |
| 20260509180012 | 70 | 248 | 0.0 | 6.0 | 0.00 | 0.00 | 0.00 | 69 | 1002.9 |
| 20260509174510 | 69 | 253 | 0.0 | 3.0 | 0.00 | 0.00 | 0.00 | 71 | 1003.0 |
| 20260509173007 | 68 | 240 | 0.0 | 1.0 | 0.00 | 0.00 | 0.00 | 66 | 1002.9 |
| 20260509171504 | 67 | 141 | 0.0 | 1.0 | 0.00 | 0.00 | 0.00 | 63 | 1002.9 |
| 20260509170100 | 66 | 142 | 0.0 | 0.0 | 0.00 | 0.00 | 0.00 | 58 | 1002.8 |
| 20260509164602 | 65 | 142 | 0.0 | 0.0 | 0.00 | 0.00 | 0.00 | 50 | 1002.8 |
| 20260509163059 | 64 | 142 | 0.0 | 0.0 | 0.00 | 0.00 | 0.00 | 46 | 1002.8 |
| 20260509161552 | 64 | 141 | 0.0 | 0.0 | 0.00 | 0.00 | 0.00 | 40 | 1002.8 |
| 20260509160049 | 63 | 142 | 0.0 | 0.0 | 0.00 | 0.00 | 0.00 | 35 | 1002.9 |
| 20260509154553 | 63 | 142 | 0.0 | 0.0 | 0.00 | 0.00 | 0.00 | 30 | 1003.0 |
| 20260509153044 | 63 | 141 | 0.0 | 2.0 | 0.00 | 0.00 | 0.00 | 24 | 1003.0 |
| 20260509151545 | 62 | 244 | 0.0 | 0.0 | 0.00 | 0.00 | 0.00 | 19 | 1002.9 |
| 20260509150042 | 62 | 244 | 0.0 | 0.0 | 0.00 | 0.00 | 0.00 | 16 | 1002.9 |
| 20260509144542 | 62 | 244 | 0.0 | 0.0 | 0.00 | 0.00 | 0.00 | 13 | 1002.9 |
| 20260509143042 | 62 | 244 | 0.0 | 0.0 | 0.00 | 0.00 | 0.00 | 10 | 1002.8 |
| 20260509141539 | 62 | 244 | 0.0 | 0.0 | 0.00 | 0.00 | 0.00 | 9 | 1002.8 |
| 20260509140041 | 61 | 244 | 0.0 | 0.0 | 0.00 | 0.00 | 0.00 | 10 | 1002.7 |
| 20260509134538 | 61 | 244 | 0.0 | 0.0 | 0.00 | 0.00 | 0.00 | 11 | 1002.7 |
| 20260509133037 | 61 | 244 | 0.0 | 0.0 | 0.00 | 0.00 | 0.00 | 12 | 1002.5 |
| 20260509131536 | 61 | 244 | 0.0 | 0.0 | 0.00 | 0.00 | 0.00 | 13 | 1002.5 |
| 20260509130036 | 61 | 244 | 0.0 | 0.0 | 0.00 | 0.00 | 0.00 | 15 | 1002.4 |
| 20260509124535 | 61 | 244 | 0.0 | 0.0 | 0.00 | 0.00 | 0.00 | 16 | 1002.3 |
| 20260509123035 | 61 | 244 | 0.0 | 0.0 | 0.00 | 0.00 | 0.00 | 18 | 1002.3 |
| 20260509121537 | 61 | 244 | 0.0 | 0.0 | 0.00 | 0.00 | 0.00 | 19 | 1002.2 |
| 20260509120032 | 61 | 246 | 0.0 | 0.0 | 0.00 | 0.00 | 0.00 | 17 | 1002.2 |
| 20260509114533 | 61 | 246 | 0.0 | 0.0 | 0.00 | 0.00 | 0.00 | 17 | 1002.3 |
| 20260509113033 | 61 | 246 | 0.0 | 0.0 | 0.00 | 0.00 | 0.00 | 16 | 1002.3 |
| 20260509111531 | 61 | 246 | 0.0 | 0.0 | 0.00 | 0.00 | 0.00 | 15 | 1002.2 |
| 20260509110034 | 61 | 246 | 0.0 | 0.0 | 0.00 | 0.00 | 0.00 | 14 | 1002.3 |
| 20260509104537 | 61 | 246 | 0.0 | 0.0 | 0.00 | 0.00 | 0.00 | 14 | 1002.3 |
| 20260509103027 | 61 | 248 | 0.0 | 0.0 | 0.00 | 0.00 | 0.00 | 11 | 1002.4 |
| 20260509101532 | 61 | 248 | 0.0 | 0.0 | 0.00 | 0.00 | 0.00 | 12 | 1002.4 |
| 20260509100025 | 61 | 248 | 0.0 | 0.0 | 0.00 | 0.00 | 0.00 | 13 | 1002.5 |
| 20260509094523 | 61 | 248 | 0.0 | 0.0 | 0.00 | 0.00 | 0.00 | 13 | 1002.7 |
| 20260509093033 | 61 | 250 | 0.0 | 0.0 | 0.00 | 0.00 | 0.00 | 12 | 1002.7 |
| 20260509091521 | 61 | 249 | 0.0 | 0.0 | 0.00 | 0.00 | 0.00 | 13 | 1002.7 |
| 20260509090022 | 61 | 249 | 0.0 | 0.0 | 0.00 | 0.00 | 0.00 | 15 | 1002.8 |
| 20260509084525 | 60 | 250 | 0.0 | 0.0 | 0.00 | 0.00 | 0.00 | 16 | 1002.9 |
| 20260509083021 | 60 | 250 | 0.0 | 0.0 | 0.00 | 0.00 | 0.00 | 17 | 1003.0 |
| 20260509081529 | 60 | 250 | 0.0 | 0.0 | 0.00 | 0.00 | 0.00 | 19 | 1003.1 |
| 20260509080027 | 60 | 250 | 0.0 | 0.0 | 0.00 | 0.00 | 0.00 | 20 | 1003.3 |
| 20260509074514 | 60 | 250 | 0.0 | 0.0 | 0.00 | 0.00 | 0.00 | 20 | 1003.4 |
| 20260509073013 | 60 | 250 | 0.0 | 0.0 | 0.00 | 0.00 | 0.00 | 20 | 1003.4 |
| 20260509071511 | 60 | 250 | 0.0 | 0.0 | 0.00 | 0.00 | 0.00 | 24 | 1003.4 |
| 20260509070009 | 61 | 250 | 0.0 | 0.0 | 0.00 | 0.00 | 0.00 | 14 | 1003.5 |
| 20260509064508 | 60 | 250 | 0.0 | 0.0 | 0.00 | 0.00 | 0.00 | 20 | 1003.6 |
| 20260509063100 | 60 | 250 | 0.0 | 0.0 | 0.00 | 0.00 | 0.00 | 16 | 1003.6 |
| 20260509061556 | 60 | 250 | 0.0 | 0.0 | 0.00 | 0.00 | 0.00 | 22 | 1003.5 |
| 20260509060053 | 60 | 250 | 0.0 | 1.0 | 0.00 | 0.00 | 0.00 | 29 | 1003.7 |
| 20260509054552 | 61 | 249 | 0.0 | 0.0 | 0.00 | 0.00 | 0.00 | 24 | 1003.7 |
| 20260509053046 | 61 | 249 | 0.0 | 0.0 | 0.00 | 0.00 | 0.00 | 27 | 1003.7 |
| 20260509051542 | 61 | 249 | 0.0 | 0.0 | 0.00 | 0.00 | 0.00 | 29 | 1003.6 |
| 20260509050040 | 61 | 250 | 0.0 | 0.0 | 0.00 | 0.00 | 0.00 | 24 | 1003.6 |
| 20260509044532 | 60 | 249 | 0.0 | 0.0 | 0.00 | 0.00 | 0.00 | 24 | 1003.5 |
| 20260509043027 | 60 | 250 | 0.0 | 0.0 | 0.00 | 0.00 | 0.00 | 24 | 1003.4 |
| 20260509041523 | 60 | 250 | 0.0 | 0.0 | 0.00 | 0.00 | 0.00 | 24 | 1003.3 |
| 20260509040018 | 60 | 250 | 0.0 | 2.0 | 0.00 | 0.00 | 0.00 | 28 | 1003.3 |
| 20260509034514 | 61 | 247 | 0.0 | 0.0 | 0.00 | 0.00 | 0.00 | 31 | 1003.2 |
| 20260509033009 | 61 | 247 | 0.0 | 3.0 | 0.00 | 0.00 | 0.00 | 34 | 1003.0 |
| 20260509031505 | 61 | 248 | 0.0 | 0.0 | 0.00 | 0.00 | 0.00 | 38 | 1002.8 |